Tracking 25689 objects as of 7-Jul-2022
HD Live streaming from Space Station
objects crossing your sky now

FENGYUN 1C DEB

Track FENGYUN 1C DEB now!
10-day predictions


NORAD ID: 46991
Int'l Code: 1999-025EZR
Perigee: 699.1 km
Apogee: 708.1 km
Inclination: 98.2 °
Period: 98.7 minutes
Semi major axis: 7074 km
RCS: Unknown
Launch date: May 10, 1999
Source: People's Republic of China (PRC)
Launch site: Taiyaun Space Center, China (TSC)

Note: This is SATELLITE DEBRIS
aabbcc
Your satellite tracking list
Your tracking list is empty




NASA's NSSDC Master Catalog

Two Line Element Set (TLE):
1 46991U 99025EZR 22187.40084869  .00002813  00000-0  60891-3 0  9994
2 46991  98.1545 249.1827 0006410 148.9295 211.2285 14.58979443505257
Source of the keplerian elements: AFSPC